Regional Weather Roundup
Issued by NWS Cleveland, OH

Home | Current Version | Previous Version | Text Only | Print | Product List | Glossary Off
Versions: 1 2 3 4 5 6 7 8 9 10 11 12 13 14 15 16 17 18 19 20 21 22 23 24 25 26 27 28 29 30 31 32 33 34 35 36 37 38 39 40 41 42 43 44 45 46 47 48 49 50

000
ASUS41 KCLE 311310
RWRCLE
OHIO REGIONAL WEATHER ROUNDUP
NATIONAL WEATHER SERVICE CLEVELAND, OH
900 AM EDT WED AUG 31 2016

NOTE: "FAIR" INDICATES FEW OR NO CLOUDS BELOW 12,000 FEET WITH NO
SIGNIFICANT WEATHER AND/OR OBSTRUCTIONS TO VISIBILITY.

OHZ001>008-015>018-024>027-034-035-043-044-311400-
   NORTHWEST OHIO

CITY           SKY/WX    TMP DP  RH WIND       PRES   REMARKS
DEFIANCE       CLOUDY    72  69  90 NW3       30.02F FOG
FINDLAY        CLOUDY    71  68  90 SW5       30.01S FOG
TOLEDO EXPRESS CLOUDY    70  70 100 W6        30.01S FOG
TOLEDO EXEC    CLOUDY    72  71  97 W5        30.01F FOG
LIMA           CLOUDY    70  70 100 W3        30.03S
$$

OHZ009>014-019>023-028>033-038-089-311400-
   NORTHEAST OHIO

CITY           SKY/WX    TMP DP  RH WIND       PRES   REMARKS
CLE-HOPKINS    CLOUDY    74  67  78 SW6       30.02S
CLE-LAKEFRONT  CLOUDY    76  69  79 SW6       29.98F
CUY CO. ARPT   CLOUDY    75  70  83 CALM      30.00F
LORAIN-ELYRIA  CLOUDY    72  68  87 W5        30.01F
ASHTABULA      CLOUDY    68  68 100 CALM      30.00F
AKRON-CANTON   CLOUDY    71  63  75 SW5       30.02F
WOOSTER        CLOUDY    70  68  93 CALM      30.03F
MANSFIELD      CLOUDY    73  67  81 W5        30.04S
YOUNGSTOWN     CLOUDY    70  62  76 W3        30.01F
$$

OHZ042-051>053-060>062-070>072-077>081-311400-
  SOUTHWEST OHIO

CITY           SKY/WX    TMP DP  RH WIND       PRES   REMARKS
CINC-COVINGTON PTSUNNY   72  71  97 N6        30.04R
CINC-LUNKEN    PTSUNNY   72  71  97 NE6       30.03S
HAMILTON       MOSUNNY   75  69  81 NW3       30.04S
DAYTON         MOSUNNY   73  68  84 W7        30.04F
WRIGHT-PAT AFB PTSUNNY   73  71  93 SE2       30.03S
DAYTON GENERAL SUNNY     74  68  81 N5        30.03F
WILMINGTON     CLOUDY    73  70  90 N3        30.04S
$$

OHZ036-037-039>041-045>050-054>059-063>069-073>076-082>088-311400-
  CENTRAL AND SOUTHEAST OHIO

CITY           SKY/WX    TMP DP  RH WIND       PRES   REMARKS
COLUMBUS       CLOUDY    75  66  73 CALM      30.01F
OSU AIRPORT    CLOUDY    76  70  82 CALM      30.02S
BOLTON FIELD   MOSUNNY   72  70  94 NW5       30.03S
RICKENBACK AFB CLOUDY    69  67  93 CALM      30.02S
NEWARK         CLOUDY    71  67  87 CALM      30.01F
MARION         CLOUDY    73  69  87 CALM      30.03F FOG
LANCASTER      CLOUDY    70  67  90 CALM      30.02S
ZANESVILLE     CLOUDY    70  64  81 MISG      30.02F
NEW PHILLY     CLOUDY    71  64  78 SE5       30.02F
$$




USA.gov is the U.S. government's official web portal to all federal, state and local government web resources and services.